Theta_e
306 306 305 305 305 305 305 305 306 306 305 305 304 304 304 303 303 303 303 302 302 301 301 301 301 302 302 303 303 302 301 301 300 299 299 296 295 295 295 295 294 294 294 294 294 294 294 294 294 294 295 295 294 293 293 292 292 292 292 291 291 290 290 290 289 289 289 288 288
306 306 306 307 306 306 305 306 306 305 305 305 304 304 304 303 303 303 303 302 302 301 301 301 301 302 302 303 303 301 300 298 298 298 297 295 295 295 295 294 294 294 294 294 294 294 294 294 294 294 294 294 294 293 293 292 292 291 291 291 291 290 290 290 289 289 289 288 288
306 306 307 307 306 305 305 305 304 304 304 304 304 304 304 304 303 303 303 302 302 302 302 302 302 302 302 302 301 299 298 297 296 296 296 295 295 295 295 294 295 295 295 294 293 293 294 294 294 295 295 294 293 293 293 292 293 292 291 291 291 291 291 291 290 289 289 289 288
307 306 306 306 305 305 305 304 304 304 304 304 304 304 304 304 304 303 303 302 302 302 301 301 302 302 302 301 299 298 297 297 296 296 295 295 295 295 295 294 294 294 293 293 293 293 293 293 294 295 294 293 293 293 293 293 293 292 292 291 291 291 291 291 290 290 290 290 289
306 306 305 305 305 305 305 304 304 304 304 305 305 304 304 304 303 303 302 302 302 301 302 301 301 301 301 299 297 297 297 298 298 297 295 295 295 295 295 294 294 293 293 293 293 293 293 294 294 294 293 293 293 292 292 292 292 291 291 291 292 292 291 291 291 291 291 290 289
305 305 305 305 305 305 305 305 304 305 305 305 304 304 303 303 303 302 302 301 301 301 301 302 301 301 299 297 296 296 296 296 296 295 295 294 294 294 294 293 293 293 293 293 293 293 293 293 294 294 293 293 292 291 291 291 291 290 290 291 291 291 291 290 290 290 290 290 289
305 305 305 304 304 304 305 305 305 305 305 305 304 303 303 303 302 302 301 301 300 300 301 302 301 300 299 298 298 298 298 297 296 295 294 294 294 294 294 293 293 293 293 293 293 292 292 292 293 294 295 295 293 291 290 290 290 290 290 290 290 290 290 290 290 290 290 289 289
305 305 305 305 305 305 304 305 305 305 305 304 303 303 302 302 301 301 300 300 300 300 300 300 299 298 298 298 298 298 298 298 296 295 295 294 293 293 292 292 292 292 292 292 292 292 292 292 293 292 292 293 292 291 289 289 289 289 289 289 290 290 289 289 289 290 290 290 289
305 305 305 305 305 305 305 305 305 304 304 303 303 302 302 301 301 300 300 299 299 300 300 299 298 298 297 297 296 296 296 295 295 294 294 293 293 292 292 292 291 291 291 292 292 292 291 292 292 291 292 292 291 290 289 288 288 288 288 289 289 289 289 289 289 289 289 289 289
304 304 304 304 304 305 305 304 304 304 304 303 302 302 302 302 301 300 299 300 300 300 299 299 298 298 297 297 296 296 295 294 294 294 293 294 293 293 292 291 291 291 291 291 291 291 291 291 291 290 290 290 290 289 289 288 288 288 288 289 289 289 289 289 289 289 290 290 289
304 304 304 304 304 305 304 304 304 304 303 302 302 302 302 302 301 300 300 300 300 299 299 299 298 298 298 297 297 297 296 296 294 293 293 293 293 292 291 291 291 291 290 291 291 290 290 290 290 289 289 289 289 289 289 289 289 288 288 288 289 288 288 289 289 289 289 290 289
304 304 304 304 304 304 304 303 303 303 302 302 302 302 301 301 301 301 301 300 300 299 299 299 299 299 298 298 298 298 297 296 294 293 293 292 292 291 291 291 290 290 290 290 290 290 290 289 289 289 289 288 288 289 289 289 289 288 288 288 288 288 288 288 288 288 289 289 289
304 304 304 304 304 304 303 303 302 302 302 302 301 301 301 301 301 301 301 300 300 300 300 300 300 299 299 298 298 297 296 294 293 292 292 292 291 290 290 290 290 289 289 289 289 289 289 289 289 289 288 288 288 289 289 289 288 288 288 288 288 288 288 288 288 288 288 289 289
304 303 303 303 303 303 303 302 302 302 302 301 301 301 301 301 302 302 301 300 300 300 299 300 299 299 298 297 296 295 293 292 292 291 291 291 290 289 289 289 289 289 289 289 289 289 289 289 288 288 288 288 288 288 289 289 288 289 288 288 288 288 288 288 288 288 288 288 289
303 303 303 303 303 303 302 302 302 302 301 301 301 301 301 301 302 301 301 300 299 299 298 298 297 296 296 294 293 292 291 291 291 290 290 290 289 289 289 289 289 289 289 289 289 289 289 289 289 289 288 288 289 288 288 289 289 289 288 288 288 288 288 288 288 288 288 288 288
303 303 303 303 303 302 302 302 302 301 301 300 301 301 301 301 301 300 300 299 298 297 296 295 294 293 293 293 292 291 290 290 290 290 289 289 289 289 289 289 289 289 289 289 289 289 289 289 289 289 289 289 289 289 289 289 289 288 288 288 288 288 288 289 289 289 289 289 289
303 303 303 302 302 302 301 301 301 301 300 300 300 300 299 299 299 299 298 297 296 294 293 293 292 292 292 292 292 291 290 289 289 289 289 289 289 289 289 289 289 289 289 289 289 289 289 288 288 288 288 289 289 289 289 289 289 289 289 289 289 288 289 290 290 290 290 290 290
303 303 303 302 302 301 301 300 300 300 299 299 298 298 297 297 296 296 296 295 294 293 292 291 291 291 291 291 290 291 290 289 289 289 289 289 289 289 289 289 289 289 289 289 289 289 289 288 288 288 288 288 288 289 289 289 289 289 289 289 289 289 289 290 290 290 290 290 291
302 302 302 301 301 300 300 299 299 298 297 296 296 295 295 295 295 294 294 293 293 292 292 291 291 291 291 290 290 291 292 290 290 290 289 289 289 289 289 289 289 289 289 289 289 289 289 289 289 288 288 289 288 289 289 289 289 289 289 290 290 290 290 291 291 291 291 291 292
300 300 299 299 298 298 297 297 296 295 295 294 294 294 294 294 294 293 292 292 292 292 291 291 291 290 290 291 291 291 292 291 290 290 289 289 289 289 289 289 289 289 289 289 289 289 289 289 289 289 289 290 290 289 289 289 289 290 290 290 291 291 292 292 292 292 292 291 291
298 297 297 296 296 295 295 295 294 294 293 293 293 293 293 293 293 292 292 292 291 291 291 291 291 290 290 291 291 291 291 292 290 289 289 290 290 290 290 290 289 289 289 289 289 289 289 289 289 289 290 291 291 291 290 291 291 291 291 291 292 292 293 293 293 293 293 291 291
295 295 295 295 294 294 294 293 293 293 293 293 293 293 292 292 291 291 291 291 291 291 291 291 291 291 290 290 290 290 291 291 290 290 290 290 290 290 290 290 289 289 289 289 289 289 289 290 290 290 291 291 291 291 292 293 293 293 292 292 292 293 294 294 294 294 294 293 293
294 294 294 294 294 294 294 293 293 292 292 292 292 292 291 291 291 290 290 291 291 291 291 291 291 291 290 290 290 290 290 290 290 290 290 290 290 290 290 289 289 289 289 289 289 289 290 290 291 291 291 291 291 291 292 293 293 293 293 293 293 293 293 294 294 294 294 293 293
293 293 293 294 293 293 293 292 292 292 291 291 291 291 290 290 290 290 290 290 291 291 291 291 291 291 290 290 290 290 290 290 290 290 289 289 289 289 289 289 289 289 289 289 292 293 293 292 291 291 291 291 291 291 292 292 292 292 291 292 292 292 291 291 293 293 293 292 292
293 293 293 292 292 292 291 291 291 291 291 290 290 290 290 290 290 290 290 290 290 290 291 291 291 291 290 290 290 290 289 289 289 289 289 289 289 288 288 289 289 289 290 293 299 301 300 298 295 292 291 291 292 291 292 292 292 291 291 291 292 291 290 290 290 289 289 289 289
292 292 292 291 291 290 290 290 290 290 289 289 289 289 289 290 290 290 290 290 290 290 290 291 291 291 291 290 289 289 289 289 289 289 288 288 288 288 289 289 289 289 291 298 300 301 302 302 301 297 293 290 291 291 292 291 291 291 291 291 291 291 290 289 289 289 289 289 288
291 291 290 290 290 290 289 289 289 289 289 288 288 289 289 289 290 290 290 290 290 290 290 291 291 293 293 290 289 289 289 289 288 288 288 288 288 289 289 289 289 290 293 300 301 302 302 303 302 301 297 292 292 291 291 290 290 290 291 290 290 290 289 289 289 290 290 289 289
290 290 290 289 289 289 289 288 288 288 288 288 288 289 289 289 289 290 290 290 289 289 290 290 292 292 291 289 289 289 289 289 288 288 288 288 289 289 289 289 289 292 296 301 301 302 302 303 302 302 300 297 292 291 290 290 290 290 289 289 289 289 288 289 289 289 290 291 291
290 290 289 289 289 288 288 288 288 288 288 288 288 289 289 289 289 289 289 289 289 289 289 290 291 291 289 289 289 288 288 288 288 288 288 289 289 289 289 290 290 294 299 303 302 302 303 303 302 302 302 300 294 290 289 290 290 289 289 288 288 288 288 289 290 290 291 291 292
290 289 289 289 289 289 288 288 288 288 288 288 288 288 289 289 289 289 289 289 289 289 289 289 290 290 290 289 289 289 289 288 288 289 289 289 289 289 290 292 291 293 298 303 303 303 303 303 302 302 301 301 297 292 288 288 288 288 288 288 287 288 289 290 290 291 290 289 289
290 290 289 289 289 289 289 289 289 288 288 288 288 288 289 289 289 289 289 289 289 290 292 291 290 290 290 290 290 289 289 289 289 289 289 289 292 291 290 290 289 292 298 303 302 302 302 302 302 301 301 300 298 292 288 288 287 287 287 287 288 288 289 290 289 288 287 287 287
290 290 290 290 289 289 289 289 289 289 288 288 288 288 289 289 289 289 289 289 291 292 292 292 291 291 290 290 290 290 289 289 289 289 289 290 290 289 289 289 288 292 297 302 302 302 302 302 301 301 300 300 298 293 288 287 287 287 287 287 288 289 290 290 289 288 287 287 287
290 290 290 290 290 289 289 289 289 289 289 289 289 289 289 289 289 289 290 291 292 292 292 291 291 291 290 290 290 289 289 289 290 291 292 291 290 289 289 289 288 293 299 301 301 302 302 301 301 300 300 300 297 291 287 287 287 287 287 287 288 289 290 290 289 288 287 287 287
290 290 290 290 290 290 290 290 290 290 290 290 290 290 290 290 290 290 291 292 291 291 291 291 290 290 289 289 289 290 290 292 291 290 290 289 288 288 288 287 287 294 301 301 301 301 302 301 301 300 300 300 295 290 287 286 286 286 287 287 287 288 290 291 289 288 287 288 289
291 290 290 290 290 290 290 290 290 290 291 291 291 290 290 290 290 290 291 293 292 291 290 290 289 289 289 289 289 289 290 291 289 288 288 287 288 288 289 287 288 294 301 301 301 301 302 302 301 300 299 298 292 288 286 286 286 286 287 287 287 287 288 289 289 289 289 290 291
291 291 291 290 290 290 291 291 291 291 291 292 291 291 290 290 290 290 292 295 293 291 289 289 289 289 289 289 288 290 291 288 288 287 288 288 288 287 287 287 288 294 300 301 301 301 302 302 301 300 299 295 290 287 286 286 286 286 286 286 286 287 288 289 289 289 289 290 291
291 291 291 290 290 290 291 291 291 291 291 292 291 291 290 290 290 291 292 294 291 290 289 289 289 289 289 289 288 289 289 288 288 288 289 290 288 287 286 286 286 291 297 300 301 301 301 301 301 300 297 292 288 286 285 285 285 285 285 286 286 286 287 288 289 289 289 290 292
291 291 291 291 291 291 291 291 291 291 291 292 291 291 291 291 290 291 293 295 291 289 289 289 289 289 289 288 288 288 288 288 289 289 288 288 288 287 287 286 286 289 294 299 300 300 301 301 301 300 297 290 286 285 285 285 285 285 285 285 285 285 286 286 286 287 289 291 296
292 292 291 291 291 291 291 291 291 291 291 291 291 291 291 291 291 292 293 295 291 290 290 289 289 289 289 290 289 289 288 288 290 290 289 287 288 289 290 287 286 288 292 298 299 300 300 301 301 300 298 293 287 285 285 284 284 284 284 284 284 285 285 285 286 287 288 291 298
292 292 292 291 291 291 292 292 292 291 291 291 291 291 291 292 292 293 294 294 291 290 290 290 290 290 291 294 291 289 288 288 288 289 290 289 290 294 295 288 286 287 292 298 299 299 299 300 300 300 298 294 287 285 285 284 284 284 284 284 284 285 285 285 285 286 288 290 296
292 292 292 292 292 292 292 292 292 291 291 291 291 291 292 293 294 294 293 293 292 291 291 291 290 291 293 296 292 290 288 288 288 289 290 292 292 295 296 289 286 286 289 295 298 299 299 300 300 300 299 294 287 285 285 284 284 284 284 284 284 285 285 285 285 287 288 290 292
Wind_Speed
8 7 6 7 7 6 6 5 6 6 6 6 6 5 5 5 5 4 4 4 5 5 4 4 3 3 3 4 6 7 7 8 8 9 8 7 6 5 4 4 4 4 4 4 4 4 4 3 3 2 2 2 2 2 1 1 2 3 3 3 3 3 3 4 4 3 3 3 2
9 9 8 8 7 7 6 6 6 6 6 5 6 6 5 5 5 5 5 5 4 4 4 4 4 4 5 6 6 7 8 8 8 8 8 7 6 5 5 5 4 4 4 4 4 4 3 3 3 2 2 2 2 2 2 1 2 3 3 3 2 2 3 3 3 3 3 3 2
10 9 8 8 7 7 6 6 6 7 7 6 6 6 5 5 5 5 5 5 5 5 4 4 4 5 6 6 6 6 6 6 7 7 7 6 6 5 5 5 5 4 4 4 3 3 3 3 2 2 2 2 2 2 2 1 2 3 3 2 2 2 2 3 2 2 2 2 2
10 9 8 8 9 8 8 7 8 8 8 7 7 6 6 5 5 5 5 5 5 5 4 5 5 5 5 5 5 4 4 5 6 7 6 6 5 5 5 5 4 4 3 3 3 3 2 2 2 2 2 2 2 2 2 1 2 2 2 1 1 2 2 2 2 2 2 2 2
9 8 8 8 9 9 8 8 9 9 8 7 7 6 5 5 5 5 5 5 5 4 5 5 5 4 4 4 4 4 4 5 6 6 5 5 5 5 4 4 4 3 3 3 3 2 2 2 2 2 2 2 2 2 2 2 3 2 2 1 1 1 2 2 2 2 2 2 2
9 9 9 9 10 9 9 9 10 9 8 7 7 7 6 5 5 5 5 5 5 5 5 5 5 5 4 4 5 6 6 7 6 6 5 5 4 4 3 3 3 3 3 2 2 2 2 3 2 2 2 1 1 1 2 3 3 3 2 2 1 1 1 2 1 2 2 2 2
9 10 10 10 10 10 9 9 9 9 8 7 8 8 7 6 6 6 6 5 5 4 4 4 5 5 5 6 6 6 7 7 6 6 4 3 3 2 2 2 2 2 2 2 2 2 3 3 2 2 2 2 2 1 2 2 3 3 2 1 1 1 1 1 1 1 2 3 2
9 10 10 10 10 11 11 10 9 8 7 7 7 8 8 8 8 8 7 6 5 4 4 4 4 5 6 6 6 6 7 7 6 4 3 2 2 1 1 2 2 2 2 2 3 3 3 3 3 2 2 1 1 1 2 2 3 3 2 1 1 1 1 1 1 1 2 3 2
9 9 10 10 10 10 10 10 9 8 8 7 8 8 8 9 9 8 7 6 5 5 4 4 5 6 6 7 7 7 7 7 7 5 4 3 2 2 1 2 2 2 2 2 3 4 4 3 2 2 1 1 1 1 1 2 3 3 2 1 0 1 1 1 1 1 2 2 2
9 9 9 9 9 9 9 9 8 8 8 8 8 9 9 10 9 8 7 6 6 5 5 5 5 6 6 6 6 5 5 5 5 4 3 3 2 2 1 1 2 2 2 2 3 4 4 3 2 2 1 1 1 1 1 2 3 2 2 1 1 0 0 1 1 1 2 2 2
9 9 9 8 9 9 9 8 7 7 8 8 8 9 9 9 8 8 7 6 6 6 6 6 6 6 6 6 6 5 5 4 3 3 2 2 2 2 2 2 2 2 3 3 3 3 3 3 2 2 1 1 1 1 1 2 2 2 1 1 1 1 0 1 1 1 2 2 3
9 9 8 8 9 9 8 8 7 7 7 8 8 8 8 8 8 8 7 7 7 7 6 6 7 7 7 6 6 6 6 5 5 4 4 3 3 2 2 2 2 3 3 3 3 3 3 3 2 1 1 1 0 1 1 2 2 2 1 1 1 1 0 1 1 1 2 2 3
9 8 8 9 9 9 8 8 7 7 7 8 8 7 7 7 7 8 8 8 8 7 6 6 7 7 8 7 8 8 7 7 7 5 4 4 3 2 2 2 3 3 3 3 3 3 3 3 2 2 1 0 0 1 1 2 2 2 1 1 1 0 1 2 2 1 1 1 2
9 9 9 9 9 9 8 7 7 6 7 8 7 7 7 6 7 7 7 7 7 7 7 6 6 7 7 8 7 7 7 6 5 5 4 3 2 2 2 2 3 3 3 3 3 3 3 3 2 2 2 1 1 1 1 2 2 2 2 1 0 1 1 2 2 1 1 1 1
9 9 9 9 9 8 7 7 6 6 7 7 7 6 6 6 6 6 6 7 7 7 7 6 6 6 6 6 6 6 5 4 4 4 3 3 2 2 3 3 3 3 3 3 3 3 3 3 3 3 3 2 1 1 1 2 2 2 2 1 1 1 2 2 1 1 1 2 2
9 9 9 9 8 8 7 7 6 6 6 7 6 6 6 5 5 6 7 7 7 6 6 6 5 5 4 5 5 5 4 4 4 3 3 3 2 3 3 3 3 3 3 3 3 2 2 2 3 3 3 3 2 2 2 2 2 2 2 2 2 2 2 2 2 1 1 2 2
9 9 9 9 9 8 8 7 6 6 6 7 7 7 6 6 6 7 8 8 7 6 6 5 5 4 4 4 4 4 3 3 3 3 3 3 3 3 3 3 3 3 3 4 3 2 2 2 2 2 3 3 3 2 2 2 2 2 2 2 2 2 2 2 2 2 2 1 2
9 9 9 9 9 9 8 8 8 8 8 8 8 8 7 7 7 7 7 7 6 6 6 5 4 4 4 4 3 3 3 3 3 3 3 3 3 3 3 3 3 3 3 4 3 3 2 2 2 2 2 3 2 2 2 2 1 1 1 1 1 2 2 3 3 3 3 2 3
9 9 9 9 9 9 9 9 9 9 9 8 8 8 7 7 7 7 6 6 5 6 6 6 5 4 4 4 3 3 3 3 3 3 3 3 3 3 3 3 3 3 3 3 3 3 3 2 2 2 2 2 2 1 1 1 0 0 1 1 2 3 3 4 4 4 3 3 3
8 8 8 8 8 9 9 9 9 8 8 7 7 7 7 7 7 7 6 6 5 6 6 6 5 4 4 3 3 3 2 2 3 3 3 3 3 3 3 3 3 3 3 3 3 3 2 2 2 2 2 2 2 2 1 1 1 2 2 2 3 4 4 5 4 4 3 3 3
7 8 8 8 8 8 8 8 8 8 8 7 8 8 8 7 7 7 7 6 6 6 6 6 5 5 4 4 3 3 2 2 2 3 3 3 3 3 3 3 3 3 3 2 2 2 2 2 2 3 3 3 3 3 3 3 3 3 4 4 4 4 5 5 4 3 3 4 4
7 7 7 8 8 8 8 8 8 8 8 8 8 8 7 7 7 7 6 6 6 5 5 5 5 5 5 4 4 3 2 2 2 2 3 3 3 3 3 3 3 3 3 2 2 2 3 3 3 3 3 3 3 3 3 4 4 4 4 4 5 5 4 4 2 2 3 4 4
7 7 7 8 8 9 9 8 8 8 8 8 8 7 7 7 7 6 6 5 5 5 4 4 4 4 4 4 4 3 3 2 2 2 2 2 2 2 2 2 3 3 3 3 3 3 3 3 3 3 3 3 3 3 3 3 3 3 3 4 4 4 4 3 2 1 1 2 3
7 7 7 7 8 8 8 8 8 8 8 8 8 8 7 7 7 6 6 6 5 5 5 4 4 4 4 4 4 4 4 3 3 2 2 2 2 2 2 2 2 3 3 3 3 4 4 3 3 3 3 2 2 2 2 2 2 2 2 2 2 3 3 3 2 2 1 1 1
7 7 7 7 7 8 8 8 8 8 8 8 7 7 7 7 7 6 6 6 5 5 5 4 4 3 3 3 3 4 4 4 4 3 2 2 2 1 1 1 1 1 2 2 3 4 4 5 4 3 2 2 1 1 1 1 1 0 0 1 1 1 2 3 3 3 2 2 3
8 8 8 7 8 8 7 8 8 8 7 7 7 7 6 6 6 6 6 6 5 5 4 4 4 3 3 3 3 3 3 3 4 3 3 2 2 2 1 1 1 0 1 2 3 3 3 5 5 4 3 2 1 1 1 1 1 1 1 1 1 0 1 2 3 3 3 3 3
8 8 8 8 8 8 8 8 7 7 7 7 7 7 6 6 6 6 6 5 4 4 4 3 3 4 4 3 3 3 3 2 3 3 3 3 3 2 2 1 1 0 1 2 4 4 3 4 4 4 4 3 2 2 2 1 1 1 1 1 1 1 1 2 3 4 4 3 3
8 8 8 8 8 8 8 7 7 7 7 7 7 6 6 6 6 6 5 5 4 3 3 3 3 3 3 3 3 3 3 3 3 3 3 3 3 3 2 1 0 1 2 4 5 5 5 5 5 4 4 4 3 3 3 2 2 1 1 1 1 1 1 2 3 3 3 3 2
9 9 9 9 9 8 8 8 8 8 8 7 7 6 6 6 6 6 5 4 4 4 3 3 2 2 2 3 3 3 3 3 3 3 3 3 3 2 1 1 0 2 3 5 5 5 5 5 5 5 4 3 3 3 3 3 2 1 1 1 1 1 2 3 3 3 2 1 1
9 9 9 9 9 9 8 9 9 9 8 7 7 7 7 7 7 6 6 5 4 4 4 3 3 3 3 3 3 3 2 2 2 3 3 3 3 2 1 1 1 2 4 6 5 5 5 5 4 5 5 3 3 4 3 3 2 2 1 1 2 2 3 3 3 3 2 1 1
9 9 9 9 9 9 9 9 9 8 8 7 7 7 7 7 7 7 6 5 4 4 4 4 4 4 4 3 3 3 3 2 2 3 3 4 3 3 2 2 2 3 4 6 5 5 5 5 4 4 4 3 2 3 3 2 2 2 1 1 2 3 4 4 3 2 2 1 1
9 9 9 9 9 9 9 8 8 8 8 7 7 7 8 7 7 6 5 5 4 4 4 4 4 4 4 3 3 2 2 2 3 3 4 5 4 3 3 2 2 3 4 5 5 5 5 5 4 4 4 3 1 3 3 2 2 1 1 1 3 4 4 4 3 3 3 3 2
9 9 9 9 9 9 9 8 8 8 8 8 7 7 7 7 5 5 4 4 4 4 5 5 5 5 4 4 3 3 2 3 3 4 5 5 4 4 3 2 2 3 4 5 5 5 5 5 4 4 4 3 1 2 2 2 1 0 1 2 3 4 5 5 4 4 4 4 3
9 9 9 9 9 9 8 8 8 8 8 8 7 7 7 6 5 5 4 4 4 4 4 4 5 5 5 4 3 3 3 3 3 3 4 4 4 4 3 2 2 3 5 5 5 6 5 5 4 4 4 2 1 2 2 2 1 1 2 3 3 4 5 5 5 5 5 5 4
9 9 9 9 9 9 9 8 8 8 8 8 8 7 7 6 6 5 5 4 4 3 3 3 3 3 3 3 3 3 3 3 3 3 4 4 4 4 3 2 2 3 4 5 5 6 5 5 4 4 3 1 2 3 2 2 1 2 2 3 4 5 5 5 5 5 5 4 4
10 10 9 9 9 9 9 9 9 9 9 9 8 7 7 6 5 5 5 5 4 4 3 3 3 3 3 2 2 2 3 4 4 4 4 4 5 4 3 2 2 3 4 5 5 5 5 5 4 4 2 2 2 2 2 1 1 2 2 3 4 5 6 5 4 4 3 3 3
10 10 10 9 9 9 9 9 9 9 9 9 8 7 7 6 5 4 4 5 4 4 4 3 3 3 3 3 3 3 3 4 4 4 4 4 4 4 3 2 1 2 3 4 5 5 5 5 5 3 1 2 2 2 1 1 1 1 2 3 4 5 5 4 4 3 3 2 3
10 10 10 10 9 9 9 9 9 9 10 9 8 7 7 6 5 4 4 5 4 4 4 3 3 3 4 4 3 3 3 3 5 5 5 4 4 4 4 3 2 2 3 4 4 5 5 5 5 4 2 3 2 2 1 1 1 1 2 3 3 4 4 4 3 2 2 2 4
10 10 10 10 10 9 9 9 10 10 9 8 7 6 6 5 5 4 4 4 4 4 4 4 4 3 4 4 3 3 2 2 4 5 5 4 4 5 5 3 2 2 3 3 4 5 5 5 6 5 3 4 3 3 2 1 0 1 2 2 3 4 4 4 3 2 2 3 5
10 10 10 10 10 10 10 10 10 9 8 7 7 6 6 6 5 4 4 4 4 4 4 4 4 4 4 4 4 3 2 2 2 3 4 5 5 6 6 4 3 2 2 3 5 5 6 6 7 5 3 4 4 3 3 2 1 0 1 2 2 3 4 4 3 2 2 2 3
9 10 10 10 10 10 10 10 9 8 7 6 7 6 6 6 5 4 3 3 3 3 4 4 4 4 4 4 4 4 3 2 2 2 3 4 4 5 5 4 3 2 2 3 4 6 6 7 7 6 4 4 4 3 3 3 1 0 2 2 2 3 3 4 3 3 2 2 1
Wind_Direction
129 128 128 130 128 126 123 121 122 121 119 121 123 127 130 129 131 130 128 121 120 118 118 119 125 131 134 133 127 119 113 106 102 98 95 91 88 84 79 75 74 71 68 63 57 55 54 56 59 58 57 57 59 54 48 51 69 70 69 69 73 78 78 75 74 75 77 79 92
130 129 129 130 128 124 120 117 119 119 119 120 123 126 129 130 130 128 124 120 120 120 121 125 137 144 145 141 130 122 116 113 107 102 99 97 96 94 91 85 80 77 74 69 63 59 57 57 59 56 51 47 53 49 41 38 72 76 74 71 76 81 82 80 84 88 90 88 88
132 131 130 129 128 127 124 122 122 122 122 121 123 126 126 127 127 126 124 123 123 126 130 138 149 150 145 137 127 121 117 115 110 106 104 104 103 100 96 92 85 79 75 72 68 66 66 66 68 66 64 59 64 64 59 41 73 80 81 78 82 84 84 86 92 91 87 82 81
131 130 129 128 128 127 126 125 125 124 124 123 124 124 123 123 123 122 122 125 129 135 142 148 149 145 138 130 123 115 109 109 108 108 108 109 105 101 98 96 94 90 85 82 80 79 77 77 77 77 77 82 86 90 91 85 79 80 82 83 81 85 90 93 94 91 85 80 84
127 126 126 125 125 124 123 123 125 125 125 125 126 125 124 122 122 123 126 133 139 144 147 144 139 135 128 116 102 90 85 88 93 96 98 99 95 93 93 97 104 106 105 102 101 99 93 84 76 73 78 88 97 106 109 99 84 78 73 62 66 79 91 95 95 91 86 80 78
122 122 121 121 122 121 121 123 125 127 127 127 129 130 130 129 130 131 134 138 138 136 131 126 121 116 105 83 71 64 59 55 56 59 63 69 70 74 81 94 106 112 112 110 107 101 93 85 75 67 64 74 82 90 95 93 88 81 71 53 52 68 81 90 96 95 90 81 69
119 120 121 123 124 125 127 128 129 129 130 130 132 134 134 132 131 131 130 130 125 118 111 107 103 99 93 83 78 73 68 62 55 52 52 56 58 70 87 102 106 108 109 108 99 91 86 86 82 75 67 68 67 60 63 79 88 87 78 57 50 69 83 91 103 102 98 93 81
118 121 124 127 129 131 133 135 135 135 135 136 136 134 132 129 126 124 122 118 116 113 109 105 110 114 116 118 118 117 116 115 115 117 125 131 130 124 117 110 104 105 105 104 100 95 90 87 88 86 81 75 71 65 68 80 88 91 91 81 51 71 91 105 107 110 113 115 110
120 124 127 130 133 135 137 138 138 138 137 136 133 131 129 126 124 123 121 121 121 120 120 122 130 135 137 138 137 135 134 134 139 144 150 149 146 139 124 107 103 100 98 99 103 101 96 88 86 87 91 92 90 90 93 96 95 98 104 110 74 56 77 105 110 118 125 131 146
126 128 130 132 134 136 136 136 135 134 132 130 129 128 128 128 127 127 128 129 128 128 130 135 137 134 130 124 117 112 110 113 122 128 134 140 142 140 131 120 115 110 104 104 105 101 96 89 83 76 74 86 101 108 109 105 107 111 120 131 115 67 48 89 124 137 147 159 177
127 129 131 132 133 133 131 130 129 128 127 127 128 128 129 131 131 132 132 132 132 134 136 137 132 125 119 111 106 103 103 110 126 138 145 151 157 159 154 146 131 124 121 120 109 100 94 89 85 74 56 44 84 102 106 104 109 114 122 128 118 98 19 293 188 175 178 186 195
123 125 127 128 129 129 127 127 126 126 126 127 128 129 130 132 134 135 135 134 135 136 137 136 133 131 129 128 132 136 143 156 168 173 172 170 172 169 159 143 129 127 126 125 113 103 98 96 96 88 60 7 39 80 94 98 100 101 99 93 97 96 264 274 253 218 194 191 201
119 120 122 124 125 125 125 125 125 125 127 128 129 129 129 130 134 136 137 137 138 139 141 144 144 144 146 150 155 160 166 173 175 173 170 170 167 159 146 133 127 125 125 125 115 110 108 111 117 122 127 52 70 94 103 104 102 97 90 77 82 107 249 262 258 238 182 172 195
116 118 120 122 123 123 122 123 123 124 125 126 126 125 125 127 133 137 139 141 144 145 149 155 159 161 162 163 165 167 168 166 161 159 159 162 154 145 138 133 128 127 125 125 118 117 122 131 142 150 154 158 154 137 124 117 113 112 111 119 151 224 247 256 250 211 144 138 163
115 117 119 120 121 121 121 121 122 122 122 122 121 121 123 126 135 142 145 149 151 154 158 163 169 170 168 163 160 156 152 145 142 143 147 150 145 141 137 133 129 127 127 126 124 128 137 151 159 163 163 162 165 158 142 129 128 132 142 162 185 215 234 246 239 195 146 139 149
117 119 120 121 121 121 121 122 121 121 120 120 122 124 128 135 144 151 155 157 158 161 164 167 166 163 157 150 142 138 134 132 134 138 142 147 148 145 142 138 137 135 132 130 131 137 149 163 167 166 165 164 166 165 159 150 150 154 166 178 191 206 223 236 238 219 176 152 155
121 123 124 124 124 124 124 123 124 125 127 128 133 137 142 148 153 158 160 161 160 160 160 159 154 147 140 137 133 130 130 132 136 141 147 153 155 154 151 148 146 142 138 134 137 143 157 170 171 166 163 163 165 167 166 164 168 174 182 192 203 216 230 243 248 243 226 194 186
126 127 128 128 128 128 129 129 131 135 138 141 145 149 153 155 157 158 159 158 156 152 149 147 142 137 134 135 134 135 136 140 146 151 155 157 155 153 151 148 145 141 137 137 142 150 162 171 168 161 156 157 160 161 165 166 173 188 206 224 242 249 255 258 256 250 240 222 204
131 132 133 133 134 134 135 137 139 142 146 148 150 152 154 154 153 151 150 150 148 144 142 140 137 136 136 139 140 141 145 146 152 154 152 147 142 141 140 138 137 135 136 139 147 156 163 168 159 149 141 136 137 137 137 140 145 249 284 289 284 279 273 267 260 252 240 218 197
136 137 138 139 138 139 140 141 143 145 146 148 148 148 148 148 146 145 145 148 146 142 139 138 139 140 141 142 143 145 147 147 145 143 139 133 130 131 133 133 132 132 135 140 147 153 156 152 141 130 120 107 91 74 57 40 15 351 331 315 301 289 279 269 259 246 224 194 175
139 139 139 139 138 139 140 141 142 142 143 144 144 145 145 145 145 146 148 150 146 141 139 141 144 147 149 149 150 152 151 142 135 133 130 125 125 129 132 132 129 129 131 135 139 139 136 129 123 114 101 84 66 50 35 22 9 355 342 329 315 301 288 276 259 227 188 168 161
139 138 138 137 138 138 139 140 140 141 142 143 144 144 145 145 149 151 151 149 145 143 145 149 152 155 158 160 160 157 149 133 127 126 126 124 126 129 131 129 128 128 130 133 132 129 124 117 109 97 84 70 54 41 29 21 11 0 349 336 324 314 306 298 283 220 172 161 160
138 137 137 137 138 139 140 140 141 141 142 143 144 145 146 149 153 153 152 149 150 151 155 159 162 164 165 165 161 153 142 128 118 114 116 118 124 129 132 131 132 137 143 148 142 134 122 105 90 80 73 65 51 37 26 18 11 1 350 336 326 321 320 324 323 311 206 169 170
138 138 138 140 140 141 141 141 142 143 144 146 147 149 151 154 154 154 154 154 156 159 161 165 168 167 164 157 150 143 139 133 126 116 104 96 107 119 128 133 140 150 158 161 156 144 128 107 92 80 73 69 54 37 21 11 5 359 347 328 321 323 326 328 327 322 311 278 236
139 139 139 140 141 142 142 143 145 147 149 151 152 152 154 156 156 157 157 159 161 163 164 165 165 159 148 138 134 131 131 132 132 129 117 93 90 96 108 118 136 157 171 177 177 160 140 124 118 110 100 90 71 32 351 337 337 322 226 227 296 319 324 323 319 308 289 266 254
141 141 142 143 144 144 145 148 150 152 153 153 154 155 157 159 159 159 160 162 165 165 163 159 156 148 139 127 121 118 119 125 132 133 132 125 113 104 99 102 114 142 208 223 234 216 179 149 142 138 136 132 149 211 260 274 258 208 194 198 202 277 314 315 310 302 291 273 256
144 145 147 147 146 148 150 153 154 154 155 156 156 159 161 162 160 160 161 164 166 164 158 153 148 142 134 122 119 120 123 130 134 137 138 137 129 119 106 98 96 95 268 266 261 245 216 184 179 172 165 161 176 194 209 221 214 201 200 206 209 231 277 290 290 289 287 282 271
149 150 150 148 150 153 156 156 156 158 160 161 162 163 163 161 160 161 163 165 161 155 150 149 144 134 123 119 127 134 141 144 142 141 137 132 124 117 109 93 61 314 281 270 258 242 219 200 207 209 202 181 172 172 177 175 179 189 200 209 228 248 263 270 272 272 272 274 288
154 153 152 152 155 158 159 159 162 165 167 167 165 163 162 161 163 164 165 162 156 154 154 156 143 126 119 133 142 147 149 153 151 142 131 119 113 109 107 94 23 291 279 269 254 235 217 206 216 235 243 217 167 155 160 162 166 173 191 225 242 258 269 274 274 270 266 276 332
156 156 156 158 160 162 164 167 169 170 170 167 164 162 161 163 166 167 167 164 163 164 164 157 144 139 144 154 154 155 155 161 153 140 130 124 125 127 136 155 225 262 265 261 246 227 213 211 222 245 259 255 165 151 152 158 156 162 184 230 255 268 276 282 283 279 276 294 347
160 159 160 162 164 167 170 172 172 171 170 166 164 162 164 166 169 171 172 170 170 167 159 147 145 149 156 162 159 159 160 158 151 146 144 145 150 159 174 189 215 243 252 250 235 220 213 215 227 247 261 267 165 142 141 148 152 161 189 234 263 274 279 283 277 264 244 224 224
163 162 163 164 168 171 173 174 173 172 169 167 165 165 167 170 173 175 175 172 164 157 151 146 149 154 160 163 165 166 165 159 165 166 164 159 160 165 177 192 213 232 239 239 228 219 216 219 229 249 263 271 132 122 128 138 146 162 207 253 271 277 279 279 263 242 224 208 202
166 166 166 168 172 174 175 174 174 172 171 169 168 169 171 173 175 175 174 169 160 155 154 156 158 162 167 172 177 182 182 176 177 176 171 162 157 159 168 191 218 231 234 235 230 225 222 224 234 251 265 276 85 101 111 112 112 102 296 289 286 285 281 274 253 233 219 209 204
169 169 170 172 174 175 176 175 174 173 173 173 174 174 174 173 173 174 174 170 162 159 160 163 165 168 171 173 174 180 186 184 177 170 162 152 147 149 160 196 230 238 239 239 237 232 228 229 237 252 268 298 70 86 84 68 45 1 327 308 300 294 286 273 247 230 220 213 212
172 171 173 175 176 177 177 176 176 175 176 177 180 180 178 175 174 175 175 171 163 160 160 165 167 166 164 160 159 165 171 171 165 158 152 144 139 143 156 197 241 249 249 249 246 239 233 229 237 248 264 14 68 75 72 53 19 342 320 309 303 296 288 274 251 236 228 225 223
174 174 175 177 178 178 178 178 177 178 180 182 183 183 181 178 177 177 174 166 157 155 158 163 160 159 157 152 146 155 163 163 159 156 150 143 139 141 152 188 239 261 263 261 256 247 236 227 232 240 246 77 79 76 67 50 9 331 316 309 301 295 288 278 261 247 240 238 234
177 176 176 177 179 180 180 179 180 181 184 186 185 184 181 180 180 177 170 159 151 153 158 158 159 165 169 170 167 169 170 163 154 151 150 148 142 143 150 176 230 266 275 270 264 254 240 226 230 231 210 91 94 86 65 41 1 333 317 308 298 293 288 280 267 256 248 248 254
179 178 177 178 180 182 182 181 182 184 187 188 186 184 182 178 179 176 171 161 153 156 160 160 165 174 179 176 170 168 164 156 150 149 150 154 151 148 151 169 215 256 270 268 264 256 246 232 235 227 188 118 119 115 102 64 2 327 313 304 299 295 289 279 270 261 260 268 288
181 180 179 179 181 183 184 184 186 187 187 186 184 183 181 179 179 178 173 163 155 155 159 164 172 179 179 169 158 151 148 150 149 149 152 160 163 159 157 163 197 233 252 251 254 255 252 241 242 233 199 138 136 134 130 119 73 320 308 303 303 300 296 288 280 276 279 286 306
183 182 181 182 183 184 185 187 189 188 185 182 182 181 181 181 180 176 169 156 150 151 156 164 173 174 170 160 151 144 142 145 149 151 155 162 174 171 165 158 180 209 234 237 245 252 255 250 248 239 211 141 139 138 134 128 120 318 304 298 302 303 303 299 297 293 286 282 310
183 184 184 185 185 185 186 188 189 187 183 179 179 180 180 179 174 168 160 151 148 151 156 163 166 165 161 157 149 146 146 150 158 158 157 161 180 178 167 154 169 189 217 231 241 250 254 253 250 243 220 157 142 136 132 127 129 220 279 283 288 294 299 302 305 302 292 277 296